Wind_Speed
32 32 32 32 31 31 31 31 31 31 30 31 31 32 33 33 34 34 34 34 34 34 34 35 35 35 35 36 36 36 36 36 36 36 37 36 37 36 36 37 37 37 37 37 37 37 37 38 38 38 38 39 39 39 40 40 40 41 41 42 42 43 43 43 44 44 44 44 45 45 45 45 45 45 45 45 45 45 44 44 44 44 44 44 44 43
32 32 32 32 31 31 30 30 30 30 30 30 31 31 32 33 33 34 34 34 35 35 35 35 35 36 36 36 37 37 37 37 37 37 37 37 37 37 37 37 37 37 37 37 38 38 38 38 38 39 39 39 40 40 41 41 41 42 42 43 43 44 44 44 45 45 45 46 46 46 46 46 46 46 46 46 46 46 46 45 45 45 45 45 45 45
32 32 32 32 31 30 30 30 30 30 30 30 30 31 31 32 32 33 34 34 35 35 35 35 36 36 36 37 37 37 37 37 37 37 37 37 37 37 37 37 37 38 38 38 38 38 39 39 39 40 40 40 41 41 41 42 42 43 43 43 44 44 45 45 46 46 46 47 47 47 47 47 47 47 47 47 47 47 47 46 46 46 46 46 46 46
32 32 32 31 31 30 30 30 30 30 30 30 30 31 31 32 32 33 33 34 34 35 35 36 36 36 36 37 37 37 37 37 37 37 37 38 38 38 38 38 38 38 38 38 39 39 39 39 40 40 41 41 41 42 42 42 43 43 44 44 44 45 45 46 46 47 47 47 47 48 48 48 48 48 48 48 48 48 48 48 48 48 47 47 47 47
32 32 32 31 31 30 29 30 30 30 30 30 30 31 31 32 32 33 33 33 34 35 35 36 36 36 37 37 37 37 37 37 37 38 38 38 38 38 38 38 38 38 38 39 39 39 39 40 40 40 41 41 42 42 42 43 43 43 44 44 45 45 45 46 46 47 47 47 48 48 48 48 48 49 49 49 49 49 49 49 49 49 49 49 49 48
32 32 32 31 30 29 29 29 30 30 30 30 31 31 32 32 32 33 33 33 34 35 35 36 36 36 36 37 37 37 37 37 37 37 37 38 38 38 38 38 38 38 39 39 39 39 40 40 40 41 41 41 42 42 42 43 43 44 44 44 45 45 45 46 46 47 47 47 48 48 48 48 49 49 49 49 50 50 50 50 50 50 50 50 50 50
33 33 32 31 30 29 29 29 29 30 30 31 31 31 32 32 33 33 33 34 34 35 35 35 36 36 36 37 37 37 37 37 37 37 37 37 38 38 38 38 38 38 39 39 39 39 40 40 40 41 41 41 42 42 42 43 43 43 44 44 44 45 45 46 46 46 47 47 47 48 48 48 49 49 50 50 50 51 51 51 51 51 51 51 51 51
34 33 32 31 30 29 28 29 29 30 31 31 31 32 32 33 33 33 34 34 34 35 35 35 35 36 36 36 37 37 37 37 37 37 37 37 38 38 38 38 38 38 38 39 39 39 39 40 40 40 41 41 41 42 42 42 43 43 43 44 44 44 45 45 46 46 46 47 47 48 48 48 49 49 50 50 51 51 52 52 52 53 53 53 53 53
35 33 32 31 30 29 28 28 29 30 31 32 32 32 32 33 33 34 34 34 35 35 35 35 35 35 35 36 36 37 37 37 37 37 37 37 37 38 38 38 38 38 38 38 39 39 39 40 40 40 41 41 41 42 42 42 42 43 43 43 44 44 44 45 45 46 46 47 47 47 48 48 49 50 50 51 51 52 52 53 53 53 54 54 54 54
35 34 33 31 30 29 28 28 29 30 32 32 33 33 33 33 33 34 34 34 35 35 35 35 34 34 35 35 36 36 37 37 37 37 37 37 37 37 38 38 38 38 38 38 38 39 39 39 40 40 40 41 41 41 42 42 42 42 43 43 43 44 44 44 45 45 46 46 47 47 48 49 49 50 50 51 52 52 53 53 54 54 54 55 55 55
36 34 33 32 30 30 29 29 30 31 32 33 33 34 34 34 34 34 34 34 34 35 35 35 34 34 34 35 35 36 36 36 37 37 37 37 37 37 38 38 37 37 37 38 38 38 39 39 39 40 40 40 41 41 41 41 41 42 42 42 43 43 43 44 44 45 45 46 47 47 48 49 49 50 51 51 52 52 53 53 54 54 54 55 55 55
36 35 33 32 31 30 30 30 31 31 32 33 33 34 35 35 36 36 35 34 34 34 34 34 34 34 34 35 35 36 36 36 36 36 36 37 37 37 37 37 37 37 37 37 37 38 38 39 39 39 40 40 40 40 40 40 41 41 41 41 42 42 43 43 44 45 45 46 47 47 48 49 49 50 51 51 52 52 53 53 54 54 54 55 55 55
36 35 34 32 31 31 30 31 31 32 32 33 34 34 35 36 36 36 36 36 35 35 35 34 34 34 34 35 35 36 36 36 36 36 36 36 36 36 37 36 36 36 36 37 37 37 38 38 39 39 39 39 39 39 40 40 40 40 40 41 41 42 42 43 44 44 45 46 47 47 48 49 49 50 50 51 52 52 53 53 54 54 54 55 55 55
36 35 34 33 32 31 31 32 32 32 33 34 34 35 35 36 37 37 37 37 36 36 36 35 34 33 34 35 36 36 36 36 36 36 35 35 36 36 36 36 36 36 36 36 36 37 38 38 38 38 38 38 38 38 39 39 39 39 40 40 41 41 42 43 43 44 45 45 46 47 48 48 49 50 50 51 51 52 53 53 54 54 55 55 55 55
36 35 34 33 32 32 32 32 33 33 34 34 35 36 36 36 37 37 37 37 37 37 36 35 34 33 33 34 35 36 37 37 36 36 35 34 35 35 36 36 35 35 36 36 36 36 37 37 37 37 37 37 37 38 38 38 38 39 39 40 40 41 42 42 43 44 44 45 46 47 47 48 49 49 50 51 51 52 53 53 54 54 55 55 55 55
36 35 34 33 33 33 33 33 34 34 34 35 36 36 36 37 37 38 38 38 38 37 37 36 35 33 33 34 35 36 37 37 37 36 35 34 34 35 36 36 35 35 35 35 35 36 36 37 37 36 36 36 36 37 37 37 38 38 39 39 40 40 41 42 42 43 44 45 45 46 47 47 48 49 50 50 51 52 52 53 54 54 54 55 55 55
36 35 35 34 33 33 34 34 34 35 35 36 36 37 37 37 38 38 38 38 38 38 37 37 36 34 33 33 34 36 37 37 37 37 35 33 33 34 35 35 35 35 35 35 35 35 36 36 36 36 36 36 36 36 36 37 37 38 38 39 39 40 41 41 42 43 43 44 45 45 46 47 47 48 49 50 50 51 52 52 53 54 54 54 55 55
35 35 35 34 34 34 34 35 35 36 36 37 37 37 37 38 38 38 38 38 38 38 38 37 37 36 34 33 34 36 38 38 38 37 36 34 33 34 35 35 35 35 34 34 35 35 35 35 35 35 35 35 35 36 36 37 37 37 38 39 39 40 40 41 42 42 43 43 44 45 45 46 47 47 48 49 49 50 51 52 52 53 53 54 54 55
35 35 35 34 34 34 34 35 36 36 37 37 37 37 37 38 38 38 38 38 38 38 38 37 37 36 35 34 34 36 38 38 39 38 37 35 34 33 34 35 35 35 34 34 35 35 35 35 35 35 34 35 35 36 36 36 37 37 38 38 39 40 40 41 41 42 42 43 43 44 44 45 46 46 47 48 48 49 50 50 51 52 53 53 54 54
35 35 35 35 35 35 35 35 36 37 37 38 38 38 37 38 38 38 38 38 38 38 38 37 37 36 36 34 34 35 37 38 39 39 38 36 35 34 35 35 36 35 35 35 35 35 35 35 35 35 35 35 35 36 36 36 37 37 38 39 39 40 40 41 41 41 42 42 42 43 43 44 44 45 46 46 47 48 49 49 50 51 52 52 53 54
36 35 35 35 35 35 35 35 36 37 38 38 38 38 38 38 38 38 38 38 37 37 37 37 37 36 36 35 34 35 37 38 39 39 39 38 36 35 36 36 36 36 35 35 36 36 36 35 35 35 35 35 35 36 36 37 37 38 38 39 40 40 40 41 41 41 42 42 42 42 42 43 43 44 44 45 46 47 48 48 49 50 51 52 52 53
36 35 35 35 35 36 36 36 36 37 38 38 38 38 38 38 38 38 38 37 37 37 37 37 36 36 36 35 35 35 37 38 39 40 40 39 37 36 37 37 38 37 37 37 37 37 37 36 36 36 36 36 36 37 37 38 38 39 39 40 40 41 41 41 41 42 42 42 42 42 42 42 42 43 44 44 45 46 47 48 49 49 50 51 52 53
36 36 35 35 36 36 36 36 37 37 38 38 38 38 39 39 39 38 38 38 37 37 37 37 37 36 35 35 34 35 36 37 39 40 40 39 38 37 38 38 39 39 38 38 38 38 38 37 37 37 37 37 37 38 38 39 39 40 40 41 41 42 42 42 42 42 42 42 42 42 42 42 42 43 43 44 45 46 47 48 48 49 50 51 52 52
37 36 36 36 36 36 37 37 37 37 37 38 38 39 39 39 39 38 38 38 38 38 38 38 37 35 34 34 33 34 35 36 38 39 40 40 39 39 39 39 40 40 39 39 39 39 39 39 38 38 38 38 39 39 39 40 40 41 42 42 43 43 43 43 43 43 43 42 42 42 42 43 43 44 44 45 46 46 47 48 49 50 50 51 52 52
37 36 36 36 37 37 37 37 37 37 38 38 38 39 39 39 39 38 38 37 38 38 38 38 36 35 34 33 33 33 34 36 37 39 40 40 40 40 39 40 40 40 40 40 40 41 40 40 40 40 40 40 40 40 41 41 42 42 43 44 44 44 44 44 44 44 43 43 43 43 43 43 44 45 45 46 47 47 48 49 49 50 50 51 51 52
37 36 37 37 37 37 38 38 38 38 38 38 39 39 39 39 39 38 37 37 38 38 38 37 36 35 34 33 32 32 33 35 37 38 40 41 41 40 40 40 41 41 41 41 41 42 42 41 41 41 41 41 41 41 42 42 43 44 44 45 45 45 45 45 45 44 44 44 44 44 44 45 45 46 46 47 47 48 48 49 49 49 50 50 50 51
37 37 37 37 37 38 38 38 38 38 38 39 39 40 40 39 38 38 37 37 38 38 38 37 37 36 35 34 33 32 32 34 36 38 40 41 41 40 40 41 41 42 42 42 42 43 43 42 42 42 42 42 42 43 43 44 45 45 46 46 46 46 46 46 45 45 44 44 45 45 45 46 46 47 47 48 48 48 48 48 48 48 48 48 48 48
37 37 38 38 38 38 38 38 38 38 39 39 39 40 40 39 38 38 37 38 38 38 38 37 37 36 36 34 33 32 32 33 35 38 40 41 40 40 40 41 41 42 43 43 43 44 43 43 43 43 43 43 44 44 45 46 46 47 47 47 47 47 47 46 46 45 45 45 45 46 46 47 47 48 48 48 48 48 48 47 47 46 46 45 45 45
37 37 38 38 39 38 38 38 38 38 39 39 39 39 39 39 38 38 38 38 38 38 38 38 37 37 36 35 34 32 32 33 35 38 40 40 40 40 40 41 41 42 43 44 45 45 44 44 44 45 45 45 45 46 46 47 48 48 48 48 48 48 47 46 46 46 46 46 46 47 47 48 48 48 48 48 48 47 46 45 44 44 43 42 42 41
37 37 38 38 38 38 38 38 38 38 39 39 39 39 39 39 38 38 38 38 38 37 37 37 37 37 37 36 35 33 31 32 35 38 40 40 40 40 40 40 41 42 43 45 46 46 46 45 45 46 46 46 47 47 48 48 49 49 49 49 49 48 48 47 47 47 47 47 47 48 48 48 49 48 48 48 47 45 44 43 42 41 40 40 40 39
37 37 38 38 38 38 38 38 38 38 38 38 38 38 38 38 38 38 37 38 37 37 37 37 37 37 37 36 35 33 32 32 35 38 40 40 40 40 40 40 40 41 43 45 47 48 48 47 47 47 47 48 48 48 49 49 50 50 51 50 50 49 48 48 48 48 48 48 49 49 49 49 49 48 48 47 45 44 42 40 39 39 38 38 38 38
37 37 37 37 38 38 38 38 38 38 38 38 38 37 37 37 37 37 37 37 37 37 37 37 37 37 37 36 36 34 33 33 35 38 39 39 40 40 40 40 40 41 43 44 46 48 49 49 48 48 48 49 49 50 50 51 51 52 52 51 51 50 49 49 49 49 49 49 50 50 50 49 49 48 47 45 43 41 40 38 37 37 37 37 38 38
36 37 37 37 37 37 37 38 38 37 37 37 37 37 37 36 36 36 37 37 37 37 37 37 37 37 37 36 35 34 33 33 35 37 39 39 39 40 40 40 40 41 42 44 45 47 49 50 50 50 50 50 51 51 51 52 52 52 52 52 51 51 50 50 50 50 50 51 51 50 50 49 48 47 45 43 41 39 37 36 35 35 36 36 37 37
36 36 36 36 36 37 37 37 37 37 37 36 36 36 36 36 36 36 36 36 37 37 37 37 37 36 36 36 35 34 33 33 35 37 38 39 39 40 40 40 41 42 43 44 45 47 49 50 51 51 52 52 52 52 52 53 53 53 53 52 52 51 51 50 51 51 51 51 51 51 50 49 47 45 43 41 39 37 35 34 34 34 34 35 35 36
36 35 36 36 36 36 36 36 36 36 36 36 36 35 35 35 35 35 36 36 36 37 37 37 37 36 36 36 35 33 32 33 34 36 37 38 39 40 40 40 41 42 43 45 46 47 49 50 51 52 53 53 53 53 53 53 54 53 53 52 52 51 51 51 51 52 52 52 51 50 49 47 46 44 42 40 38 36 34 33 33 32 33 33 34 34
35 35 35 35 35 36 36 36 36 35 35 35 35 35 34 34 35 35 35 36 36 36 37 37 37 37 36 35 34 33 32 33 33 35 36 38 39 39 40 40 41 42 44 45 46 48 49 50 51 52 53 54 54 54 54 54 54 53 53 52 52 52 51 51 52 52 52 52 51 49 48 46 44 42 40 38 36 35 34 33 32 32 31 32 32 33
35 34 34 35 35 35 35 35 35 35 34 34 34 34 34 34 34 34 35 35 35 36 36 36 37 36 36 35 34 33 32 32 33 33 35 37 38 39 40 40 41 43 44 45 47 48 49 51 52 53 53 54 55 55 55 54 54 53 53 52 52 52 51 52 52 52 52 52 50 49 47 45 43 41 39 37 36 34 33 32 31 31 30 31 31 31
34 34 34 34 34 34 34 34 34 34 34 33 33 33 33 33 34 34 34 35 35 35 35 36 36 35 35 34 34 33 32 32 32 33 34 36 38 39 40 41 42 43 44 46 47 48 50 51 52 53 54 55 55 55 55 55 54 53 53 52 52 52 52 52 52 52 52 51 49 47 45 43 41 40 38 37 35 34 33 32 31 30 30 30 30 30
34 33 33 33 34 34 33 33 33 33 33 33 33 33 33 33 34 34 34 34 35 35 35 35 34 34 34 33 33 32 32 32 32 33 34 35 37 38 40 41 42 43 44 45 47 48 50 51 52 53 54 55 56 55 55 55 54 53 53 52 52 51 51 52 52 52 51 50 48 46 44 42 40 39 37 36 35 34 33 31 30 29 29 29 29 29
33 33 33 33 33 33 33 33 33 32 32 32 32 32 32 33 33 33 34 34 34 34 34 34 34 33 33 32 31 31 31 32 32 33 34 35 37 38 39 41 42 43 44 45 46 48 49 51 52 53 54 55 56 56 55 54 53 53 53 53 53 52 51 51 51 51 50 48 46 44 42 41 39 38 37 36 34 33 32 31 30 29 29 29 29 29
32 32 32 32 32 32 32 32 32 32 31 31 31 32 32 33 33 33 33 33 33 33 34 34 33 33 32 31 31 30 31 31 32 32 33 34 36 38 39 40 42 43 44 45 46 48 49 50 52 53 54 55 56 56 55 54 53 53 53 54 54 53 52 51 51 50 49 47 45 43 41 40 39 38 37 35 34 33 32 31 30 30 29 29 29 29
32 31 31 31 31 31 31 31 31 31 31 31 31 31 32 32 33 33 32 32 32 33 33 33 32 32 31 30 30 30 30 30 31 32 33 34 36 37 39 40 41 43 44 45 46 47 49 50 51 52 53 54 55 55 55 54 53 52 53 53 54 53 52 51 50 49 48 46 44 42 41 39 39 38 37 35 34 32 31 31 30 30 29 29 29 29
31 31 31 31 31 31 31 31 30 30 30 30 31 31 32 32 32 32 32 32 32 32 32 33 32 31 30 29 29 29 29 30 31 31 33 34 35 37 38 40 41 43 44 45 46 48 49 50 51 52 53 54 54 54 54 53 53 52 52 53 53 54 53 52 50 49 48 46 43 41 39 38 38 38 37 35 34 33 32 31 30 30 29 29 29 29
30 30 30 30 30 30 30 30 30 30 30 30 30 31 31 32 32 32 32 32 32 32 32 32 32 31 30 30 29 29 29 29 30 31 32 34 35 37 38 39 41 42 44 45 46 48 49 50 51 51 52 53 53 54 53 53 53 52 52 52 52 53 53 52 51 49 47 45 42 40 38 37 38 38 37 36 34 33 32 31 31 30 30 30 30 30
30 30 30 30 30 29 29 29 29 29 29 29 30 30 31 31 32 32 32 31 31 32 32 32 32 31 31 30 29 29 29 29 29 30 32 33 35 37 38 39 41 42 43 45 46 48 49 50 51 51 52 52 53 53 52 52 52 52 51 51 52 52 52 51 50 48 46 44 41 38 37 36 37 37 37 36 35 34 33 32 32 31 31 31 31 31
29 29 29 29 29 29 29 29 29 29 29 29 29 30 30 31 31 31 31 31 31 31 32 32 31 31 31 30 30 29 29 29 29 30 31 33 35 36 38 39 41 42 43 44 46 47 48 50 51 51 52 52 52 52 51 51 51 51 51 51 51 52 51 50 48 46 44 42 39 37 36 36 36 36 37 36 35 34 33 33 33 33 32 32 32 33
29 29 29 29 28 29 29 29 29 29 29 29 29 29 30 30 31 31 31 31 31 31 31 31 31 31 31 31 30 30 30 30 30 30 31 33 34 36 38 39 40 42 43 44 46 47 48 49 50 51 52 52 52 51 51 50 50 50 51 51 52 52 51 50 47 44 42 40 38 36 35 35 35 36 36 36 36 35 34 33 33 33 33 33 33 33
29 28 28 28 28 28 28 28 28 28 28 28 29 29 29 30 30 30 31 31 31 31 31 31 31 31 31 31 31 31 31 31 31 31 32 33 35 36 37 39 40 42 43 44 46 47 48 49 50 51 51 52 52 52 51 50 49 50 51 51 52 52 52 50 47 44 41 38 36 35 34 34 34 35 36 37 36 35 34 33 33 32 32 32 32 33
28 28 28 28 28 28 28 28 28 28 28 28 28 28 29 29 30 30 30 31 31 31 31 31 31 31 31 31 31 31 31 31 31 32 33 34 35 36 38 39 40 42 43 45 46 47 49 49 50 50 51 51 51 51 51 50 49 49 50 51 52 53 52 51 48 45 41 38 36 34 33 33 33 34 36 37 37 36 35 33 32 31 30 31 32 33
28 28 28 28 27 27 27 28 28 28 28 28 28 28 28 29 29 29 30 30 30 31 31 31 31 31 31 31 31 31 31 32 32 33 33 35 36 37 38 39 41 42 44 45 46 48 49 50 50 50 50 50 51 51 51 50 50 50 50 51 52 53 53 51 49 46 42 39 36 34 32 32 32 33 35 37 37 37 36 34 32 30 30 31 32 34
28 28 27 27 27 27 27 27 27 28 28 28 28 28 28 28 28 29 29 30 30 30 30 31 31 31 31 31 31 31 31 32 32 33 34 35 36 37 39 40 41 43 45 46 47 49 50 51 51 51 50 49 50 50 50 50 50 50 50 51 52 52 53 52 50 47 44 41 38 35 33 32 32 33 34 36 37 38 37 35 33 32 31 32 34 37
Wind_Direction
252 252 252 253 254 255 257 258 260 262 264 266 269 271 273 275 276 278 279 280 282 283 284 285 285 286 287 288 288 289 289 290 290 291 291 292 292 293 293 294 294 294 295 295 295 295 295 295 295 296 296 296 296 296 296 296 297 297 297 298 298 298 298 298 299 299 298 298 298 298 298 297 297 297 296 296 295 295 294 293 293 292 291 291 290 289
253 253 253 253 254 255 257 258 260 262 264 266 268 270 272 274 276 278 279 281 282 283 284 285 286 286 287 288 288 289 289 290 291 291 292 292 293 293 294 294 295 295 295 296 296 296 296 296 297 297 297 297 297 297 298 298 298 298 298 299 299 299 299 300 300 300 299 299 299 299 298 298 298 297 297 296 296 295 294 294 293 293 292 291 291 290
253 254 254 255 255 256 257 259 260 262 264 266 268 270 272 274 276 278 279 281 282 283 284 285 286 286 287 288 288 289 290 290 291 291 292 292 293 294 294 295 295 296 296 297 297 297 297 298 298 298 298 298 298 298 299 299 299 299 299 299 300 300 300 300 300 300 300 299 299 299 298 298 298 297 297 296 296 295 294 294 293 293 292 292 291 290
253 254 255 256 256 257 259 260 262 263 265 267 269 270 272 274 275 277 279 280 282 283 284 285 285 286 286 287 288 288 289 290 291 291 292 293 293 294 294 295 296 296 297 297 298 298 298 298 299 299 299 299 299 299 299 299 299 299 299 299 299 300 300 300 299 299 299 299 299 298 298 298 297 297 296 296 295 295 294 293 293 292 292 291 291 290
255 255 255 256 257 259 260 262 264 265 267 268 270 272 273 274 276 277 278 280 281 282 283 284 284 285 286 286 287 288 289 290 291 291 292 293 293 294 295 295 296 296 297 297 298 298 298 298 298 298 298 298 298 298 298 298 298 298 298 299 299 299 299 299 298 298 298 298 298 297 297 297 296 296 296 295 295 294 293 293 292 292 291 291 290 290
257 256 256 257 258 259 262 264 265 267 269 270 272 273 274 275 276 277 278 279 280 281 282 283 283 284 285 286 287 287 288 289 290 291 291 292 293 294 294 295 296 296 296 297 297 297 297 297 297 297 297 297 297 297 297 297 297 297 297 297 297 297 297 297 297 297 297 297 296 296 296 296 296 295 295 295 294 294 293 293 292 291 291 290 290 289
260 259 259 259 259 260 262 264 266 268 269 271 272 274 275 276 277 278 278 279 279 280 281 282 283 284 285 285 286 287 288 289 289 290 291 292 292 293 294 294 295 295 295 296 296 296 296 295 295 295 295 295 295 295 295 295 296 296 296 296 296 296 296 296 296 296 295 295 295 295 295 295 295 295 294 294 294 293 293 292 292 291 291 290 290 289
263 262 262 262 262 263 264 266 267 269 270 271 272 273 274 276 277 278 279 279 279 280 280 281 282 283 284 285 286 287 287 288 288 289 290 291 291 292 293 293 293 294 294 294 294 294 294 294 294 294 294 293 294 294 294 294 294 295 295 295 295 295 295 295 295 295 295 295 294 294 294 294 294 294 294 294 293 293 293 292 292 291 291 290 290 289
267 265 264 264 264 265 266 268 269 270 271 272 273 273 274 274 276 277 278 279 280 280 280 281 282 283 284 285 285 286 287 287 288 288 289 289 290 290 291 291 292 292 292 292 292 292 292 292 292 292 292 292 292 293 293 293 293 294 294 294 294 294 294 294 294 294 294 294 294 294 294 293 293 293 293 293 293 292 292 292 291 291 291 290 289 289
269 268 267 266 266 267 268 269 270 271 272 273 274 274 274 274 275 275 276 277 278 279 280 281 281 282 283 284 285 285 286 287 287 288 288 288 288 289 289 289 290 290 290 290 291 291 291 291 291 291 291 291 292 292 292 293 293 293 293 293 293 293 293 293 293 293 293 293 293 293 293 293 292 292 292 292 292 291 291 291 290 290 290 289 289 289
271 270 270 269 269 269 270 271 271 271 272 273 274 275 276 276 275 275 275 275 276 278 279 280 281 281 282 282 283 284 285 285 286 286 287 287 287 288 288 288 289 289 289 289 290 290 290 290 290 290 290 291 291 291 292 292 292 292 292 292 292 292 292 292 292 292 292 292 292 292 292 292 292 291 291 291 291 290 290 290 289 289 289 288 288 288
272 272 272 272 272 272 272 272 272 272 272 273 274 275 276 277 277 277 276 276 276 277 278 279 280 281 281 281 281 282 282 283 283 284 285 285 286 287 287 288 288 289 289 289 289 289 289 289 289 289 290 290 290 291 291 291 291 291 291 291 291 291 291 291 291 291 291 291 292 291 291 291 291 291 290 290 290 289 289 289 288 288 287 287 287 286
273 273 273 273 273 274 274 273 273 273 274 274 275 275 275 276 277 278 278 278 278 278 277 278 278 279 280 281 281 281 281 281 281 282 283 284 284 285 285 286 287 287 287 287 288 288 288 288 288 288 289 289 289 290 290 290 290 290 290 290 290 290 291 291 291 291 291 291 291 291 291 291 291 290 290 290 289 289 288 288 287 287 286 285 285 285
274 274 274 275 275 275 275 275 275 275 275 275 275 275 276 276 277 278 278 279 279 279 279 278 278 279 280 280 281 281 281 281 281 281 282 283 284 284 285 285 285 286 286 286 286 286 286 286 287 287 288 288 288 289 289 289 289 289 289 290 290 290 291 291 291 291 291 291 291 291 291 291 290 290 290 289 289 288 288 287 286 286 285 284 284 283
275 276 276 276 277 277 276 276 276 276 276 275 276 276 276 277 278 278 279 279 279 279 279 279 279 280 280 281 281 281 281 281 281 281 282 283 284 285 285 285 285 285 285 285 285 285 285 286 286 287 287 288 288 288 288 289 289 289 290 290 290 291 291 291 292 292 292 292 292 291 291 291 291 290 290 289 288 288 287 287 286 285 284 284 283 282
276 276 277 277 277 277 277 277 277 277 276 276 276 277 277 278 278 279 279 279 280 280 280 280 280 279 280 281 282 282 282 281 281 282 282 283 284 285 285 285 285 285 285 285 285 285 285 286 286 287 287 288 288 288 289 289 290 290 290 291 291 292 292 292 292 293 293 293 292 292 292 291 291 290 290 289 288 288 287 286 285 285 284 283 282 282
276 277 277 278 278 278 278 277 277 277 277 277 277 277 278 278 279 279 280 280 280 281 281 281 281 280 280 280 281 282 282 283 283 283 283 284 285 285 285 286 285 285 285 286 286 286 286 286 287 288 288 289 289 289 290 290 290 291 292 292 293 293 293 294 294 294 294 294 293 293 292 292 291 290 290 289 288 287 286 286 285 284 283 283 282 281
276 277 277 277 278 278 278 278 278 278 277 277 278 278 278 279 279 280 280 281 282 282 282 283 283 283 282 282 283 283 284 284 285 285 285 286 286 287 287 287 287 287 287 287 287 287 287 288 288 289 289 289 290 290 291 291 292 293 294 294 295 295 295 295 295 295 295 295 294 293 293 292 291 290 289 288 287 286 285 285 284 283 283 282 281 281
276 276 277 277 277 277 278 278 278 278 278 278 278 278 279 279 280 280 281 282 282 283 283 284 285 285 286 286 286 286 286 287 287 288 288 288 288 288 288 288 288 288 289 289 289 289 289 289 290 290 291 291 292 292 293 293 294 295 296 296 297 297 297 297 297 296 296 295 294 294 293 292 290 289 288 287 286 285 284 284 283 282 282 281 281 280
276 276 277 278 278 278 278 278 278 278 278 278 279 279 279 280 280 281 281 282 283 283 284 285 286 287 288 288 289 289 289 289 290 290 290 290 291 291 291 290 290 290 290 291 291 290 291 291 292 292 293 293 294 294 295 296 297 297 298 298 298 298 298 298 298 297 297 296 295 294 292 291 290 288 287 286 285 284 283 282 282 281 281 280 280 280
277 278 278 278 279 279 279 279 279 279 279 279 280 280 280 280 281 281 282 282 283 284 285 286 287 288 289 290 291 291 291 292 292 292 292 292 293 294 293 293 292 292 293 293 293 293 293 294 294 295 295 296 296 297 298 299 299 300 300 300 300 300 300 300 299 299 298 296 295 294 292 290 289 287 286 285 284 283 282 281 281 280 280 280 279 279
278 279 279 279 280 280 280 279 279 280 280 281 281 281 281 281 281 282 282 283 284 285 286 287 288 289 290 292 293 293 293 294 294 294 294 294 295 295 295 295 295 295 295 295 295 295 295 296 297 298 298 299 299 300 301 301 302 303 303 303 303 303 302 302 301 300 299 297 296 294 292 290 289 287 286 285 284 283 282 281 281 280 280 279 279 278
279 280 280 280 280 280 280 280 280 281 281 282 282 282 282 282 283 283 283 284 285 285 286 286 287 289 291 292 293 294 295 296 296 296 296 297 297 297 296 296 297 297 297 297 297 297 298 299 299 300 301 301 302 303 304 305 305 305 305 305 305 305 304 304 303 302 301 299 297 296 294 292 291 289 288 287 286 285 284 283 282 281 281 280 279 279
281 282 282 282 282 282 282 282 282 282 282 282 283 283 283 283 284 284 285 286 286 286 286 286 287 289 291 292 294 296 297 297 297 297 298 298 298 298 298 298 298 298 299 299 299 300 300 301 301 302 303 304 305 306 307 307 308 308 308 307 307 307 307 306 305 304 303 302 300 298 297 295 294 293 292 291 290 289 288 287 286 285 283 282 281 280
282 283 283 283 283 283 283 283 283 283 283 283 283 283 283 283 284 285 286 286 287 287 286 287 288 290 291 293 295 297 298 298 298 298 298 298 298 298 299 299 299 299 300 300 301 301 301 302 303 304 305 306 307 308 309 309 310 310 309 309 309 309 309 309 308 307 306 304 303 301 300 299 298 297 296 294 293 292 291 290 289 288 287 285 284 283
283 284 284 284 283 283 283 284 284 284 284 283 283 283 283 283 284 285 286 287 287 287 287 289 290 291 292 294 296 298 298 299 299 298 298 298 298 299 299 300 300 300 301 301 301 302 303 303 305 306 307 308 309 310 310 311 311 311 311 312 312 312 311 311 310 309 307 306 304 303 302 301 300 299 299 298 297 295 294 293 292 291 289 288 286 285
284 284 284 283 283 283 283 283 284 284 284 283 283 283 284 284 285 286 287 287 287 288 289 291 292 292 293 295 297 298 299 300 299 298 297 297 298 299 300 300 301 301 301 302 302 303 304 305 306 307 308 309 310 311 312 313 313 313 314 314 314 314 313 312 311 310 308 307 306 305 304 304 303 302 301 300 299 298 297 296 294 293 292 290 289 287
284 284 284 283 283 283 283 283 283 283 283 283 283 284 284 285 286 287 287 287 288 289 291 292 293 294 295 296 297 299 301 301 299 298 297 297 298 300 300 301 301 302 302 302 302 303 304 306 307 308 309 310 312 313 314 315 315 315 315 315 315 315 314 313 312 310 309 308 307 307 306 306 305 305 304 303 301 300 299 298 296 295 293 292 290 289
284 283 283 283 283 283 283 283 283 283 283 283 283 284 285 286 287 288 288 288 289 290 292 293 294 295 296 297 298 300 302 301 299 298 297 298 299 300 301 302 302 303 303 303 303 303 304 306 308 309 311 312 313 315 316 316 316 316 316 316 316 315 314 314 312 311 310 309 309 309 308 308 307 307 306 304 303 302 300 299 297 296 294 293 292 291
283 282 282 282 283 283 283 283 283 283 283 283 284 284 285 286 287 288 289 289 290 291 292 293 294 296 297 298 299 301 302 302 300 298 298 299 300 300 301 302 303 304 304 304 304 304 304 306 308 311 312 314 315 316 317 317 317 317 317 316 316 316 315 314 313 312 311 311 311 310 310 310 309 308 307 305 304 302 301 299 298 296 295 294 293 292
281 281 282 282 283 283 283 282 282 282 283 283 284 284 285 286 287 288 289 290 291 292 293 294 295 296 298 299 300 302 303 302 300 299 299 299 300 301 302 303 303 304 305 306 306 306 306 307 309 311 313 315 316 317 317 318 318 318 317 317 317 317 316 315 314 313 313 312 312 312 312 312 310 309 307 306 304 302 301 299 298 296 295 294 294 293
280 281 281 282 282 282 282 282 282 282 282 283 283 284 285 286 287 288 289 290 291 292 293 294 295 297 298 299 301 302 303 302 300 299 299 300 300 301 302 303 304 304 305 306 307 308 309 309 310 312 314 315 317 317 318 318 319 318 318 318 318 317 317 316 315 314 314 314 314 314 313 312 311 309 307 305 303 301 300 298 297 296 295 294 294 293
280 280 281 281 281 281 281 281 281 281 282 282 283 284 285 286 287 288 289 290 291 292 293 294 295 296 297 299 300 302 303 302 300 299 299 299 300 301 302 303 304 305 306 306 308 309 310 311 312 313 314 316 317 318 319 319 319 319 319 319 318 318 317 316 316 315 315 315 315 314 314 312 310 308 306 304 301 300 298 297 296 295 295 294 293 293
280 280 280 280 279 279 279 280 280 280 281 281 282 283 284 285 286 287 288 289 290 292 293 294 295 296 297 298 300 301 302 302 300 299 299 300 301 301 302 304 305 306 306 307 308 309 310 312 313 314 315 316 317 318 319 319 319 319 319 319 318 318 317 317 316 316 315 315 315 314 313 311 309 306 304 302 300 298 297 296 295 294 293 292 292 291
279 279 279 279 279 278 279 279 279 280 280 281 282 282 283 284 285 286 287 288 290 291 292 294 295 296 297 298 299 300 301 301 300 299 299 300 301 302 303 304 305 306 307 308 309 310 311 312 313 315 316 316 317 318 319 319 319 319 319 319 318 318 317 317 316 315 315 315 315 314 312 310 307 305 302 300 298 297 295 294 293 292 291 291 290 291
279 279 279 279 278 278 278 278 279 279 280 281 281 282 283 284 284 285 286 288 289 291 292 293 294 296 297 298 299 300 300 300 299 299 299 300 301 302 303 305 306 307 308 309 309 310 312 313 314 315 316 317 317 318 318 318 319 319 319 318 318 317 317 316 316 315 315 315 314 313 311 309 306 303 301 299 297 296 295 294 293 292 291 290 290 290
280 280 279 279 278 278 278 278 278 279 279 280 281 282 282 283 284 285 286 287 289 290 291 293 294 295 297 298 299 300 300 299 299 299 299 300 301 302 304 305 306 307 309 309 310 311 312 313 314 315 316 316 317 318 318 318 318 318 318 318 317 317 316 316 316 315 315 315 314 312 310 308 305 302 299 297 296 295 294 294 293 292 291 290 291 291
280 280 279 279 278 278 278 278 278 279 279 279 280 281 282 283 283 284 286 287 288 290 291 292 294 295 297 298 299 300 300 299 299 299 299 300 302 303 304 305 306 307 308 309 311 312 313 313 314 315 316 316 316 317 317 318 318 318 318 317 316 316 316 316 316 316 315 314 313 311 309 306 303 300 298 296 295 294 294 293 292 291 290 290 290 292
280 280 279 279 278 278 278 278 278 278 279 279 280 280 281 282 283 284 285 287 288 289 291 292 293 294 296 297 298 299 299 299 299 299 300 301 302 303 304 305 306 307 308 309 310 311 312 313 314 315 315 315 316 316 316 317 318 318 317 317 316 316 315 316 316 315 315 314 312 310 307 304 301 298 296 295 294 293 293 292 291 290 290 289 289 290
280 280 279 279 279 279 279 279 279 279 279 279 280 281 281 282 283 284 285 286 288 289 290 291 292 294 295 296 297 298 298 298 298 299 300 301 302 302 303 304 305 306 307 308 310 311 312 312 313 314 314 315 315 315 316 317 318 318 317 316 316 315 315 315 315 315 314 313 311 309 306 303 299 297 295 294 293 293 292 291 290 289 289 289 288 288
280 280 280 279 279 279 279 279 279 279 279 280 280 281 281 282 283 284 285 286 288 289 290 291 292 293 294 295 296 296 296 296 297 298 299 300 301 302 302 303 304 306 307 308 309 310 311 312 312 313 313 314 314 315 316 317 318 318 317 316 315 314 314 315 315 315 314 313 311 308 305 301 298 296 294 293 292 292 291 290 289 289 288 288 288 287
281 280 280 280 280 279 279 279 279 280 280 280 280 281 281 282 283 284 285 286 287 288 289 290 291 292 293 294 294 295 295 295 296 297 298 299 300 300 301 302 304 305 306 307 308 309 310 311 312 312 313 313 314 315 316 317 317 317 316 315 314 314 313 314 315 315 314 313 310 307 304 300 297 295 293 292 291 291 290 289 288 288 287 287 286 286
281 281 280 280 279 279 279 280 280 280 280 280 281 281 282 282 283 284 285 286 287 288 289 289 290 291 291 292 292 292 293 294 294 296 297 298 298 299 300 302 303 304 305 307 308 309 309 310 311 312 313 313 314 315 316 317 317 316 315 315 314 314 314 315 315 315 314 312 309 306 302 299 296 294 293 292 291 290 288 287 287 287 287 286 285 285
281 281 280 280 280 279 280 280 280 280 280 281 281 282 283 283 284 285 286 287 288 288 289 289 290 291 291 291 291 290 291 292 293 294 296 297 297 298 299 301 302 303 305 306 307 308 309 310 311 312 312 313 314 315 315 316 316 316 315 314 314 314 315 316 316 316 314 311 308 305 301 298 295 293 292 291 290 289 288 287 286 285 285 285 285 284
281 281 280 280 280 280 279 279 279 280 280 281 281 282 283 284 285 286 287 288 288 289 290 290 291 291 292 291 291 290 290 291 292 293 294 295 297 298 299 300 302 303 304 306 307 308 309 310 311 312 312 313 314 314 315 316 316 315 315 315 314 314 315 316 317 316 314 311 308 304 300 296 294 292 291 291 290 288 287 286 285 284 284 284 284 284
280 280 280 279 279 279 279 279 279 280 280 281 282 283 284 285 286 287 288 289 289 290 291 291 292 292 293 292 291 291 290 290 291 292 293 294 296 297 298 300 302 303 304 306 307 308 309 310 311 312 313 313 313 314 315 316 316 316 315 315 314 314 315 316 317 316 314 311 307 303 299 295 293 292 291 291 290 289 287 286 284 283 283 283 283 284
280 280 279 279 279 279 279 279 279 280 280 281 282 283 284 285 287 288 289 290 290 291 291 292 293 293 293 293 293 292 291 291 291 291 292 294 295 296 298 300 301 303 305 306 307 309 310 311 311 312 313 313 314 314 315 316 316 316 316 316 315 315 315 316 317 316 314 310 306 302 298 295 292 291 291 291 290 289 288 286 284 283 283 283 284 284
280 279 279 279 279 279 279 279 279 280 281 282 283 284 285 286 288 289 290 291 291 292 292 293 293 294 294 294 294 294 293 293 293 293 293 294 295 296 298 300 302 303 305 306 308 309 310 311 312 312 313 314 314 315 316 317 317 317 317 317 316 316 316 316 317 316 314 310 305 301 297 295 293 292 292 291 290 289 288 286 284 283 283 283 284 285
280 280 279 279 279 279 280 280 280 281 282 283 284 285 286 288 289 290 291 291 292 292 293 294 294 294 294 294 294 294 294 294 295 295 295 296 297 298 299 301 303 304 306 307 309 310 311 311 312 313 314 315 316 317 317 318 319 319 318 317 317 316 316 317 317 316 314 310 305 301 297 294 293 293 292 292 291 290 288 286 284 283 282 283 284 286
280 280 280 280 280 281 281 281 282 283 284 284 285 287 288 289 290 291 291 292 293 293 294 294 294 295 295 295 295 295 295 296 296 297 297 298 299 300 302 303 305 307 308 309 310 310 311 312 312 313 315 316 317 318 319 319 320 320 319 318 317 317 317 317 317 316 314 310 306 301 297 294 292 292 291 291 291 290 288 286 284 283 283 284 285 288
281 281 281 281 282 282 282 283 284 284 285 286 287 288 289 290 290 291 292 292 293 294 294 295 295 295 295 295 295 296 296 297 297 298 299 300 302 303 305 306 308 309 310 311 311 311 312 312 313 313 315 317 318 319 320 321 321 321 320 319 318 317 317 317 317 316 313 310 307 303 299 296 293 291 290 290 290 289 287 286 284 284 285 286 289 291
Height
3042 3041 3041 3040 3040 3040 3040 3040 3039 3039 3039 3039 3038 3038 3037 3037 3037 3036 3036 3036 3035 3035 3035 3035 3034 3034 3033 3033 3032 3032 3031 3031 3030 3030 3029 3029 3028 3027 3026 3025 3025 3024 3023 3022 3021 3020 3019 3018 3018 3017 3016 3015 3014 3013 3013 3012 3011 3010 3009 3008 3008 3007 3006 3005 3005 3005 3004 3003 3003 3002 3001 3001 3000 3000 2999 2999 2998 2998 2997 2997 2997 2996 2996 2996 2996 2996
3039 3038 3038 3038 3038 3038 3037 3037 3036 3036 3036 3036 3036 3035 3035 3035 3034 3034 3033 3033 3033 3032 3032 3032 3031 3031 3030 3030 3029 3029 3028 3028 3027 3027 3026 3025 3025 3024 3023 3022 3021 3020 3019 3018 3018 3017 3016 3015 3014 3013 3012 3011 3011 3010 3009 3008 3007 3006 3006 3005 3004 3003 3003 3002 3001 3001 3000 3000 2999 2998 2998 2997 2996 2996 2995 2995 2995 2994 2994 2993 2993 2992 2992 2992 2992 2992
3036 3035 3035 3035 3035 3035 3034 3034 3033 3033 3033 3033 3033 3033 3032 3032 3032 3031 3031 3030 3030 3030 3029 3029 3029 3028 3028 3027 3026 3026 3025 3025 3024 3024 3023 3022 3022 3021 3020 3019 3018 3017 3016 3015 3014 3013 3012 3011 3010 3010 3009 3008 3007 3006 3005 3005 3004 3003 3002 3001 3001 3000 2999 2999 2998 2997 2996 2996 2995 2995 2994 2993 2993 2992 2991 2991 2991 2990 2990 2989 2989 2989 2988 2988 2988 2988
3034 3033 3032 3032 3032 3031 3031 3030 3030 3030 3030 3030 3030 3030 3030 3030 3029 3029 3028 3028 3027 3027 3026 3026 3026 3025 3025 3024 3024 3023 3023 3022 3021 3021 3020 3020 3019 3018 3017 3016 3015 3014 3013 3012 3011 3010 3009 3008 3007 3006 3005 3005 3004 3003 3002 3001 3000 3000 2999 2998 2998 2997 2996 2995 2995 2994 2993 2992 2991 2991 2990 2990 2989 2988 2988 2987 2987 2986 2986 2985 2985 2985 2984 2984 2984 2984
3031 3030 3030 3029 3029 3028 3028 3027 3027 3026 3027 3027 3027 3026 3026 3026 3026 3026 3026 3025 3025 3025 3024 3024 3023 3023 3022 3022 3021 3020 3020 3020 3019 3018 3017 3016 3015 3015 3014 3013 3012 3010 3010 3009 3008 3007 3006 3005 3004 3003 3002 3002 3001 3000 2999 2998 2998 2997 2996 2995 2995 2994 2993 2992 2991 2991 2990 2989 2988 2988 2987 2986 2985 2985 2984 2984 2983 2983 2982 2982 2981 2981 2980 2980 2980 2980
3028 3027 3027 3026 3026 3025 3025 3024 3024 3023 3023 3023 3024 3023 3023 3023 3023 3023 3023 3023 3022 3022 3021 3021 3020 3020 3020 3019 3019 3018 3017 3017 3016 3015 3015 3014 3013 3012 3011 3010 3009 3008 3007 3006 3005 3004 3003 3002 3001 3000 3000 2999 2998 2997 2996 2995 2995 2994 2993 2993 2992 2991 2990 2989 2989 2988 2987 2986 2985 2984 2984 2983 2982 2981 2980 2980 2979 2979 2978 2978 2977 2976 2976 2975 2975 2975
3025 3024 3024 3023 3023 3022 3022 3021 3021 3020 3020 3020 3020 3020 3020 3020 3020 3020 3020 3020 3020 3019 3019 3019 3018 3017 3017 3016 3016 3015 3015 3014 3014 3013 3012 3011 3010 3009 3008 3007 3006 3005 3004 3003 3002 3001 3000 3000 2999 2998 2997 2996 2995 2995 2994 2993 2992 2991 2991 2990 2989 2988 2987 2986 2985 2985 2984 2983 2982 2981 2980 2980 2979 2978 2977 2976 2975 2975 2974 2974 2973 2972 2971 2971 2971 2971
3021 3021 3021 3020 3020 3020 3019 3019 3018 3017 3017 3017 3017 3017 3017 3017 3017 3017 3017 3016 3016 3016 3016 3016 3015 3015 3014 3013 3013 3012 3012 3011 3011 3010 3009 3008 3007 3006 3005 3004 3003 3002 3001 3000 3000 2999 2998 2997 2996 2995 2995 2994 2993 2992 2991 2990 2990 2989 2988 2987 2986 2985 2985 2984 2983 2982 2981 2980 2979 2978 2977 2976 2975 2975 2974 2973 2972 2971 2970 2969 2969 2968 2967 2967 2966 2966
3018 3018 3018 3017 3017 3016 3016 3015 3015 3014 3014 3014 3014 3014 3015 3015 3014 3014 3014 3014 3013 3013 3013 3013 3013 3012 3012 3010 3010 3009 3009 3008 3008 3007 3006 3005 3005 3004 3003 3002 3001 3000 2999 2998 2997 2996 2995 2994 2994 2993 2992 2991 2990 2989 2989 2988 2987 2986 2985 2984 2983 2982 2981 2980 2980 2979 2978 2977 2976 2975 2974 2973 2972 2971 2970 2969 2968 2967 2966 2965 2965 2964 2963 2962 2962 2961
3015 3015 3015 3014 3014 3013 3013 3012 3012 3011 3011 3010 3010 3011 3011 3011 3011 3011 3011 3011 3010 3010 3010 3010 3010 3010 3009 3008 3007 3006 3006 3005 3005 3004 3004 3003 3002 3001 3000 2999 2998 2997 2997 2995 2995 2994 2993 2992 2991 2990 2989 2988 2987 2987 2986 2985 2984 2983 2982 2981 2980 2980 2979 2978 2977 2976 2975 2974 2973 2972 2971 2970 2969 2968 2967 2966 2965 2964 2963 2962 2961 2960 2959 2958 2958 2957
3012 3012 3011 3011 3011 3010 3010 3009 3009 3009 3008 3008 3007 3007 3007 3007 3007 3008 3008 3009 3008 3008 3007 3007 3007 3007 3006 3006 3005 3004 3003 3003 3002 3002 3001 3000 2999 2998 2997 2996 2995 2995 2994 2993 2992 2991 2990 2989 2988 2987 2986 2985 2985 2984 2983 2982 2981 2980 2980 2979 2978 2977 2976 2975 2974 2973 2972 2971 2970 2969 2968 2966 2965 2964 2963 2962 2961 2960 2959 2958 2957 2956 2955 2954 2953 2953
3009 3009 3008 3008 3008 3007 3007 3006 3006 3005 3005 3005 3005 3004 3004 3004 3003 3003 3004 3005 3005 3005 3005 3005 3004 3004 3003 3003 3002 3001 3001 3000 3000 2999 2998 2997 2996 2995 2994 2994 2993 2992 2991 2990 2989 2988 2987 2986 2985 2985 2984 2983 2982 2981 2980 2980 2979 2978 2977 2976 2975 2974 2973 2972 2971 2970 2969 2968 2966 2965 2964 2963 2962 2961 2960 2958 2957 2956 2955 2954 2953 2952 2951 2950 2949 2949
3006 3006 3005 3005 3005 3004 3004 3003 3003 3002 3002 3001 3001 3001 3001 3000 3000 3000 3000 3000 3001 3001 3002 3002 3002 3001 3000 2999 2999 2998 2998 2998 2997 2997 2996 2995 2994 2993 2992 2991 2990 2989 2988 2987 2986 2985 2984 2983 2983 2982 2981 2980 2980 2979 2978 2977 2976 2975 2974 2973 2972 2971 2970 2969 2968 2967 2965 2965 2963 2962 2961 2960 2958 2957 2956 2955 2953 2952 2951 2950 2948 2947 2946 2946 2945 2944
3003 3003 3002 3002 3002 3001 3001 3000 3000 2999 2999 2998 2998 2997 2997 2997 2997 2996 2996 2997 2997 2997 2998 2998 2998 2998 2998 2996 2995 2995 2994 2994 2994 2994 2993 2992 2991 2990 2989 2988 2987 2987 2986 2985 2984 2983 2982 2981 2980 2979 2979 2978 2977 2976 2975 2974 2973 2972 2971 2970 2969 2968 2967 2966 2965 2964 2962 2961 2960 2958 2957 2956 2955 2953 2952 2950 2949 2948 2946 2945 2944 2943 2942 2941 2940 2940
3000 3000 3000 2999 2999 2998 2998 2997 2996 2996 2995 2995 2995 2994 2994 2994 2993 2993 2993 2993 2993 2993 2994 2994 2995 2995 2995 2993 2992 2991 2990 2990 2990 2990 2990 2990 2988 2987 2985 2985 2984 2984 2983 2982 2981 2980 2979 2978 2977 2976 2976 2975 2974 2973 2972 2971 2970 2969 2968 2967 2966 2965 2964 2963 2961 2960 2959 2958 2956 2955 2953 2952 2950 2949 2947 2946 2945 2943 2942 2940 2939 2938 2937 2936 2935 2935
2997 2997 2997 2996 2996 2995 2995 2994 2993 2993 2992 2992 2991 2990 2990 2990 2990 2990 2989 2989 2989 2990 2990 2990 2991 2992 2992 2990 2989 2987 2986 2986 2986 2986 2987 2987 2986 2984 2982 2981 2981 2980 2980 2979 2978 2977 2976 2975 2974 2974 2973 2972 2971 2970 2969 2968 2967 2966 2965 2964 2963 2962 2961 2960 2958 2957 2955 2954 2952 2951 2950 2948 2946 2945 2943 2941 2940 2939 2937 2936 2934 2933 2932 2931 2930 2930
2994 2994 2994 2993 2993 2993 2992 2991 2990 2990 2989 2988 2988 2987 2987 2987 2986 2986 2986 2985 2985 2985 2985 2986 2986 2987 2988 2988 2986 2984 2982 2982 2982 2982 2983 2983 2983 2981 2979 2977 2977 2977 2976 2975 2974 2973 2972 2972 2971 2970 2970 2969 2968 2967 2966 2965 2964 2963 2962 2961 2960 2959 2957 2956 2955 2953 2952 2950 2949 2947 2945 2944 2942 2940 2939 2937 2935 2934 2932 2931 2930 2928 2927 2926 2925 2924
2991 2991 2991 2990 2990 2990 2989 2988 2987 2986 2985 2985 2985 2984 2984 2983 2983 2982 2982 2982 2982 2982 2981 2981 2982 2982 2983 2984 2983 2981 2979 2977 2977 2977 2978 2979 2979 2977 2975 2974 2973 2972 2972 2972 2971 2970 2969 2968 2968 2967 2967 2966 2965 2964 2963 2962 2961 2960 2959 2958 2956 2955 2954 2952 2951 2950 2948 2946 2945 2943 2941 2940 2938 2936 2934 2932 2931 2929 2928 2926 2925 2923 2922 2921 2920 2919
2988 2988 2988 2988 2987 2987 2986 2985 2984 2983 2982 2981 2981 2981 2980 2980 2980 2979 2979 2978 2978 2978 2978 2977 2977 2978 2978 2979 2979 2977 2975 2973 2972 2972 2973 2974 2974 2973 2971 2970 2969 2968 2968 2968 2967 2966 2965 2965 2965 2964 2963 2962 2961 2960 2959 2958 2957 2956 2955 2954 2953 2951 2950 2949 2947 2945 2944 2942 2941 2939 2937 2935 2933 2932 2930 2928 2926 2925 2923 2922 2920 2919 2918 2916 2915 2914
2985 2985 2985 2985 2984 2983 2983 2982 2981 2980 2979 2978 2978 2977 2977 2977 2976 2976 2975 2975 2975 2974 2974 2974 2974 2974 2974 2975 2974 2973 2971 2969 2968 2967 2968 2968 2969 2968 2967 2965 2964 2964 2964 2964 2963 2962 2961 2961 2960 2960 2959 2958 2957 2956 2955 2955 2954 2952 2951 2950 2949 2947 2946 2945 2943 2941 2940 2938 2936 2935 2933 2931 2929 2927 2925 2924 2922 2920 2919 2917 2916 2914 2913 2912 2910 2910
2982 2982 2982 2981 2980 2980 2980 2979 2978 2977 2975 2975 2974 2974 2974 2973 2973 2972 2972 2971 2971 2970 2970 2970 2970 2970 2970 2970 2970 2969 2967 2965 2963 2962 2962 2963 2964 2963 2962 2960 2959 2959 2959 2959 2958 2957 2957 2956 2956 2956 2955 2954 2953 2952 2951 2950 2950 2948 2947 2946 2944 2943 2941 2940 2939 2937 2935 2934 2932 2930 2928 2926 2925 2923 2921 2919 2918 2916 2915 2913 2911 2910 2909 2907 2906 2905
2979 2979 2979 2978 2978 2977 2976 2976 2975 2974 2972 2971 2971 2970 2970 2969 2969 2969 2969 2968 2968 2967 2967 2966 2966 2966 2966 2966 2966 2965 2963 2961 2959 2958 2957 2957 2958 2959 2957 2955 2954 2954 2954 2954 2953 2953 2952 2952 2951 2951 2950 2950 2949 2948 2947 2946 2945 2944 2942 2941 2940 2938 2937 2935 2934 2932 2930 2929 2927 2925 2923 2922 2920 2918 2916 2915 2913 2911 2910 2908 2907 2905 2904 2903 2902 2900
2976 2976 2976 2975 2975 2974 2973 2973 2972 2971 2970 2969 2968 2967 2966 2965 2965 2965 2965 2965 2964 2964 2963 2963 2963 2963 2964 2963 2963 2961 2960 2957 2955 2954 2952 2952 2953 2953 2952 2950 2949 2949 2949 2949 2948 2947 2947 2947 2946 2946 2945 2945 2944 2943 2942 2941 2940 2939 2937 2936 2935 2933 2932 2930 2928 2927 2925 2923 2921 2920 2918 2916 2915 2913 2911 2910 2908 2906 2905 2903 2902 2900 2899 2898 2897 2896
2973 2973 2973 2972 2971 2970 2970 2969 2968 2968 2967 2966 2965 2964 2963 2962 2962 2962 2962 2961 2960 2960 2959 2959 2960 2960 2960 2960 2960 2958 2957 2954 2952 2950 2948 2948 2948 2948 2947 2946 2945 2944 2944 2944 2943 2942 2942 2942 2941 2941 2940 2940 2939 2938 2937 2936 2935 2934 2932 2931 2929 2928 2926 2925 2923 2921 2919 2917 2915 2914 2912 2910 2909 2907 2905 2904 2902 2901 2899 2898 2896 2895 2894 2893 2892 2891
2970 2970 2970 2969 2968 2967 2966 2966 2965 2965 2964 2963 2962 2961 2960 2960 2959 2959 2958 2958 2957 2956 2955 2955 2956 2957 2957 2957 2956 2955 2954 2951 2949 2946 2945 2944 2943 2944 2943 2942 2940 2940 2939 2939 2938 2937 2937 2937 2937 2936 2935 2935 2934 2933 2932 2931 2930 2929 2927 2925 2924 2922 2920 2919 2917 2915 2913 2911 2910 2908 2906 2904 2903 2901 2900 2898 2896 2895 2893 2892 2890 2889 2888 2887 2885 2885
2968 2967 2967 2966 2965 2965 2964 2964 2963 2962 2961 2960 2958 2958 2957 2956 2956 2955 2955 2955 2953 2952 2952 2952 2952 2953 2953 2953 2953 2953 2951 2949 2946 2944 2941 2940 2939 2940 2940 2938 2936 2935 2935 2934 2934 2933 2932 2932 2932 2931 2931 2930 2929 2929 2928 2926 2925 2924 2922 2920 2918 2917 2915 2913 2911 2910 2908 2906 2904 2902 2900 2899 2897 2895 2894 2892 2890 2889 2887 2886 2884 2883 2882 2880 2879 2878
2965 2964 2964 2963 2962 2962 2961 2960 2960 2959 2958 2957 2955 2954 2953 2953 2952 2952 2952 2951 2950 2949 2948 2949 2949 2949 2950 2950 2950 2950 2948 2946 2943 2940 2938 2936 2935 2935 2935 2934 2932 2931 2930 2930 2929 2928 2927 2927 2927 2927 2926 2925 2925 2924 2923 2921 2920 2918 2917 2915 2913 2911 2910 2908 2906 2904 2902 2900 2899 2897 2895 2893 2891 2890 2888 2886 2885 2883 2881 2880 2878 2877 2875 2874 2873 2872
2962 2961 2960 2960 2959 2959 2958 2958 2957 2956 2955 2954 2953 2951 2950 2950 2949 2949 2949 2948 2947 2946 2945 2945 2945 2945 2945 2946 2946 2946 2945 2944 2940 2937 2935 2933 2932 2932 2932 2930 2929 2927 2926 2925 2924 2924 2923 2923 2922 2922 2921 2921 2920 2919 2918 2916 2915 2913 2911 2910 2908 2906 2905 2903 2901 2899 2897 2895 2893 2891 2890 2888 2886 2884 2882 2880 2879 2877 2875 2874 2872 2871 2870 2868 2867 2866
2959 2958 2957 2957 2956 2956 2955 2955 2954 2953 2952 2951 2950 2949 2947 2946 2946 2946 2945 2945 2944 2943 2942 2942 2942 2941 2941 2942 2942 2943 2943 2940 2937 2934 2931 2930 2929 2929 2928 2927 2925 2924 2922 2920 2919 2920 2920 2919 2918 2917 2916 2916 2915 2914 2913 2911 2910 2908 2906 2905 2903 2902 2900 2898 2896 2894 2892 2890 2888 2886 2885 2883 2881 2879 2877 2875 2873 2871 2870 2869 2867 2865 2864 2863 2862 2861
2956 2955 2955 2954 2954 2953 2952 2952 2951 2950 2950 2948 2947 2946 2945 2944 2943 2943 2942 2941 2940 2940 2940 2939 2939 2938 2938 2938 2938 2939 2940 2938 2934 2930 2928 2927 2926 2925 2925 2924 2922 2920 2918 2915 2914 2914 2915 2915 2914 2912 2911 2911 2910 2910 2908 2906 2905 2903 2901 2900 2898 2897 2895 2893 2891 2889 2887 2885 2883 2881 2880 2877 2875 2873 2871 2870 2868 2866 2865 2864 2862 2861 2860 2859 2858 2857
2953 2952 2952 2951 2951 2950 2950 2949 2948 2947 2947 2946 2945 2944 2942 2941 2940 2940 2939 2938 2938 2937 2936 2936 2936 2935 2935 2934 2935 2935 2936 2934 2931 2927 2925 2923 2923 2922 2921 2920 2919 2917 2915 2912 2910 2908 2908 2909 2910 2909 2907 2906 2905 2905 2904 2902 2900 2898 2896 2895 2893 2892 2890 2888 2886 2884 2882 2880 2878 2876 2874 2872 2870 2868 2866 2865 2863 2862 2860 2859 2858 2856 2855 2854 2854 2853
2951 2950 2950 2949 2948 2948 2947 2946 2945 2945 2944 2943 2942 2941 2940 2939 2938 2937 2936 2935 2935 2934 2934 2933 2933 2932 2932 2931 2931 2931 2932 2931 2928 2925 2922 2920 2919 2919 2918 2917 2916 2914 2913 2910 2907 2905 2903 2902 2904 2904 2904 2902 2901 2900 2899 2897 2895 2893 2891 2890 2888 2887 2885 2883 2880 2878 2876 2875 2873 2871 2869 2867 2865 2864 2862 2860 2859 2858 2857 2855 2854 2853 2851 2850 2850 2849
2948 2948 2947 2947 2946 2945 2944 2944 2943 2942 2941 2940 2939 2938 2937 2936 2935 2935 2934 2933 2932 2931 2931 2930 2930 2930 2929 2929 2929 2929 2929 2927 2925 2922 2919 2918 2916 2915 2915 2914 2912 2911 2909 2907 2905 2903 2900 2899 2898 2898 2898 2898 2897 2895 2894 2893 2891 2889 2887 2885 2884 2882 2880 2878 2876 2874 2872 2870 2868 2866 2865 2863 2861 2859 2858 2856 2855 2854 2853 2852 2851 2850 2848 2847 2845 2845
2946 2945 2945 2944 2944 2943 2942 2941 2940 2939 2939 2938 2937 2936 2935 2934 2933 2932 2931 2930 2930 2929 2928 2928 2927 2927 2926 2926 2926 2926 2926 2924 2922 2919 2916 2915 2913 2912 2911 2910 2909 2907 2906 2904 2902 2900 2898 2896 2895 2894 2893 2893 2893 2892 2890 2888 2887 2885 2883 2881 2879 2877 2875 2874 2872 2869 2867 2866 2864 2862 2860 2859 2857 2855 2854 2853 2851 2851 2850 2849 2848 2847 2845 2844 2842 2841
2943 2943 2942 2941 2941 2940 2939 2938 2937 2936 2936 2935 2934 2933 2933 2932 2931 2930 2929 2928 2927 2926 2926 2925 2925 2924 2924 2923 2923 2923 2923 2921 2919 2916 2914 2912 2910 2909 2908 2907 2906 2904 2902 2900 2899 2897 2895 2894 2893 2891 2889 2888 2888 2888 2887 2885 2883 2881 2879 2878 2875 2873 2871 2870 2867 2865 2863 2862 2860 2858 2856 2854 2852 2851 2850 2849 2848 2847 2846 2846 2845 2844 2842 2841 2839 2838
2940 2940 2939 2939 2938 2937 2936 2935 2935 2934 2933 2932 2932 2931 2930 2930 2929 2928 2927 2926 2925 2924 2924 2923 2922 2921 2921 2920 2920 2920 2920 2919 2917 2914 2911 2909 2907 2906 2905 2904 2903 2901 2899 2897 2896 2894 2892 2890 2889 2888 2887 2885 2883 2883 2883 2882 2880 2878 2876 2874 2872 2870 2868 2866 2864 2861 2859 2858 2856 2854 2852 2850 2848 2847 2846 2845 2844 2844 2843 2842 2841 2840 2839 2838 2836 2835
2937 2937 2936 2935 2935 2934 2934 2933 2932 2931 2930 2930 2929 2928 2928 2927 2926 2925 2925 2924 2923 2922 2921 2920 2920 2919 2918 2918 2917 2917 2916 2915 2914 2912 2910 2907 2905 2904 2902 2901 2900 2898 2896 2894 2892 2891 2889 2887 2886 2885 2884 2882 2880 2879 2878 2877 2877 2875 2873 2870 2868 2866 2864 2862 2860 2858 2855 2853 2852 2850 2848 2846 2845 2843 2842 2841 2840 2840 2839 2839 2838 2837 2835 2834 2833 2831
2934 2934 2933 2933 2932 2931 2930 2930 2930 2929 2928 2927 2927 2926 2925 2924 2924 2923 2922 2921 2920 2920 2919 2918 2917 2917 2916 2915 2915 2914 2913 2912 2911 2909 2907 2905 2903 2901 2900 2898 2897 2895 2894 2892 2890 2888 2886 2884 2883 2881 2880 2879 2878 2877 2875 2873 2872 2871 2869 2867 2865 2863 2860 2858 2856 2854 2852 2850 2848 2846 2844 2843 2841 2839 2838 2837 2837 2836 2835 2835 2834 2833 2832 2830 2830 2828
2931 2930 2930 2930 2929 2928 2928 2927 2926 2926 2925 2925 2924 2923 2922 2922 2921 2920 2920 2919 2918 2917 2916 2916 2915 2915 2914 2913 2912 2911 2910 2909 2908 2906 2905 2903 2901 2899 2897 2896 2894 2893 2891 2890 2888 2886 2884 2882 2880 2878 2877 2875 2874 2873 2873 2871 2869 2867 2864 2862 2861 2860 2858 2855 2853 2850 2848 2846 2844 2842 2840 2839 2837 2836 2835 2834 2833 2832 2832 2831 2830 2829 2828 2827 2826 2825
2928 2927 2927 2926 2926 2925 2925 2924 2924 2923 2922 2922 2921 2920 2920 2919 2918 2917 2917 2916 2915 2915 2914 2913 2913 2912 2912 2911 2910 2909 2908 2907 2905 2904 2902 2901 2899 2897 2895 2893 2892 2890 2889 2888 2886 2884 2882 2880 2878 2876 2875 2873 2870 2869 2869 2868 2866 2864 2861 2858 2856 2855 2854 2852 2850 2847 2845 2842 2840 2838 2836 2835 2833 2832 2831 2830 2830 2829 2828 2827 2826 2825 2825 2823 2822 2821
2924 2924 2924 2923 2923 2922 2922 2921 2920 2920 2920 2919 2919 2918 2917 2916 2915 2915 2914 2914 2913 2912 2911 2910 2910 2910 2909 2909 2908 2907 2906 2905 2903 2902 2900 2899 2897 2895 2893 2891 2890 2888 2887 2885 2884 2882 2880 2878 2876 2874 2873 2870 2868 2866 2865 2865 2863 2861 2858 2855 2852 2850 2850 2849 2846 2844 2840 2838 2836 2835 2832 2831 2829 2828 2827 2826 2826 2825 2825 2823 2823 2822 2821 2820 2819 2818
2921 2921 2921 2920 2920 2919 2919 2918 2918 2917 2917 2916 2916 2915 2914 2913 2912 2912 2912 2911 2910 2910 2909 2908 2907 2907 2907 2907 2906 2905 2904 2902 2901 2900 2898 2897 2895 2893 2891 2889 2888 2886 2884 2883 2881 2880 2878 2876 2874 2872 2870 2868 2866 2864 2862 2861 2860 2858 2855 2851 2848 2846 2845 2845 2843 2840 2836 2834 2832 2831 2829 2827 2825 2824 2823 2823 2822 2822 2821 2820 2819 2818 2818 2817 2816 2815
2918 2918 2918 2917 2917 2916 2916 2915 2915 2915 2914 2913 2913 2912 2911 2910 2910 2909 2909 2909 2908 2907 2906 2905 2905 2905 2905 2905 2904 2903 2902 2900 2899 2898 2896 2895 2893 2891 2889 2887 2886 2884 2882 2880 2879 2877 2876 2874 2872 2870 2867 2865 2863 2861 2859 2857 2856 2855 2852 2849 2845 2842 2839 2839 2838 2836 2833 2830 2828 2826 2825 2823 2821 2820 2819 2819 2818 2818 2817 2817 2816 2815 2815 2814 2813 2812
2915 2915 2915 2914 2914 2913 2913 2913 2912 2912 2911 2910 2910 2909 2908 2907 2907 2906 2906 2905 2905 2904 2903 2902 2902 2902 2902 2901 2901 2901 2900 2899 2897 2896 2894 2893 2891 2889 2887 2885 2884 2882 2880 2878 2876 2874 2873 2871 2870 2868 2865 2863 2860 2858 2856 2854 2852 2850 2848 2845 2842 2839 2836 2834 2833 2831 2829 2826 2825 2823 2821 2819 2817 2816 2815 2815 2815 2814 2814 2813 2813 2812 2812 2811 2810 2808
2912 2912 2911 2911 2911 2910 2910 2910 2909 2909 2908 2908 2907 2906 2905 2905 2904 2904 2903 2903 2902 2901 2900 2900 2899 2899 2899 2899 2898 2898 2897 2896 2895 2894 2892 2890 2889 2887 2885 2883 2882 2880 2878 2876 2874 2872 2870 2868 2866 2864 2863 2860 2858 2856 2853 2851 2848 2846 2844 2842 2839 2836 2833 2832 2830 2827 2824 2822 2820 2819 2818 2816 2814 2812 2811 2811 2811 2810 2810 2810 2809 2809 2808 2808 2807 2805
2909 2909 2909 2908 2908 2908 2907 2907 2906 2906 2906 2905 2905 2904 2903 2902 2901 2901 2900 2900 2899 2898 2898 2897 2896 2896 2895 2895 2895 2895 2894 2894 2893 2892 2890 2889 2887 2885 2883 2881 2879 2877 2875 2874 2871 2869 2867 2865 2863 2860 2859 2856 2855 2853 2851 2848 2845 2842 2840 2838 2835 2832 2830 2828 2826 2824 2821 2819 2817 2815 2814 2812 2810 2809 2807 2806 2806 2806 2807 2806 2806 2805 2805 2804 2803 2802
2906 2906 2905 2905 2905 2905 2904 2904 2904 2903 2903 2903 2902 2901 2900 2900 2899 2898 2897 2897 2896 2895 2895 2894 2894 2893 2892 2892 2891 2891 2891 2890 2890 2889 2888 2886 2885 2883 2881 2879 2877 2875 2873 2871 2869 2866 2864 2862 2860 2857 2855 2853 2850 2849 2848 2846 2843 2839 2836 2833 2830 2828 2825 2824 2822 2820 2818 2815 2813 2811 2810 2809 2807 2805 2804 2803 2802 2802 2803 2803 2802 2802 2801 2800 2800 2799
2903 2903 2903 2902 2902 2902 2902 2901 2901 2900 2900 2900 2899 2899 2898 2897 2896 2895 2895 2894 2893 2893 2892 2891 2891 2890 2890 2889 2888 2888 2887 2887 2886 2886 2885 2883 2882 2880 2878 2876 2874 2872 2870 2868 2865 2863 2861 2859 2856 2854 2852 2849 2846 2844 2843 2842 2840 2836 2832 2829 2826 2823 2820 2819 2818 2816 2814 2812 2810 2808 2807 2805 2804 2802 2800 2799 2798 2798 2799 2799 2799 2799 2798 2797 2796 2795
2900 2900 2900 2899 2899 2899 2899 2898 2898 2898 2897 2897 2897 2896 2895 2895 2894 2893 2892 2891 2890 2890 2889 2888 2888 2887 2887 2886 2885 2885 2884 2883 2883 2882 2881 2880 2878 2876 2875 2873 2871 2869 2866 2865 2862 2860 2857 2855 2853 2851 2849 2846 2843 2840 2838 2837 2835 2833 2829 2825 2822 2818 2815 2814 2813 2812 2810 2808 2807 2805 2804 2802 2801 2799 2797 2795 2794 2793 2794 2794 2795 2795 2795 2794 2793 2791
2897 2897 2897 2896 2896 2896 2896 2895 2895 2895 2895 2894 2894 2893 2893 2892 2891 2890 2889 2888 2888 2887 2886 2885 2885 2884 2884 2883 2882 2882 2881 2880 2879 2879 2877 2876 2874 2872 2871 2869 2867 2865 2862 2860 2858 2856 2854 2851 2850 2848 2846 2843 2840 2836 2834 2832 2831 2829 2825 2822 2818 2815 2811 2810 2808 2807 2806 2804 2803 2802 2801 2800 2798 2797 2794 2792 2790 2789 2789 2790 2790 2791 2791 2790 2789 2788
2894 2894 2894 2894 2893 2893 2893 2893 2892 2892 2892 2891 2891 2890 2890 2889 2888 2887 2886 2886 2885 2884 2884 2883 2882 2881 2881 2880 2880 2879 2878 2877 2876 2875 2874 2872 2870 2869 2867 2865 2863 2860 2858 2855 2853 2851 2849 2847 2845 2844 2843 2842 2838 2835 2831 2829 2827 2824 2821 2818 2815 2811 2808 2805 2804 2803 2801 2800 2799 2798 2797 2796 2795 2794 2792 2789 2787 2785 2784 2785 2785 2786 2787 2786 2785 2783